Weather History for South Lake Tahoe, CA

Change the Weather History Date:

Sunday, February 17, 2013

  Actual Average Record
Temperature  
Mean Temperature 36 °F 31 °F  
Max Temperature 51 °F 44 °F 55 °F (2007)
Min Temperature 20 °F 18 °F -8 °F (1969)
Degree Days  
Heating Degree Days 29 34  
Month to date heating degree days 570 590  
Since 1 July heating degree days 4641 4872  
Cooling Degree Days 0 0  
Month to date cooling degree days 0 0  
Year to date cooling degree days 0 0  
Moisture  
Dew Point 16 °F    
Average Humidity 47    
Maximum Humidity 75    
Minimum Humidity 18    
Precipitation  
Precipitation 0.00 in - 3.91 in (1986)
Month to date precipitation 0.04  
Year to date precipitation 0.75  
Sea Level Pressure  
Sea Level Pressure 30.01 in    
Wind  
Wind Speed 2 mph (South)    
Max Wind Speed 9 mph    
Max Gust Speed 25 mph    
Visibility 10 miles    
Events      
T = Trace of Precipitation, MM = Missing Value Source: NWS Daily Summary

Daily Weather History Graph

Daily Weather History Graph

Search for Another Location

Airport:

Trip Planner

Search our weather history database for the weather conditions in past years. The results will help you decide how hot, cold, wet, or windy it might be!

Date:

Astronomy

Feb. 17, 2013 Rise Set
Actual Time 6:48 AM PST 5:40 PM PST
Civil Twilight 6:21 AM PST 6:07 PM PST
Nautical Twilight 5:50 AM PST 6:38 PM PST
Astronomical Twilight 5:19 AM PST 7:09 PM PST
Moon 10:49 AM PST (2/17) 12:36 AM PST (2/17)
Length of Visible Light 11h 46m
Length of Day
10h 51m
Waxing Crescent, 50% of the Moon is Illuminated
Feb 17
Waxing Crescent
Feb 17
First Quarter
Feb 25
Full
Mar 4
Last Quarter
Mar 11
New

Hourly Weather History & Observations

Time (PST) Temp. Windchill Dew Point Humidity Pressure Visibility Wind Dir Wind Speed Gust Speed Precip Events Conditions
12:53 AM 26.1 °F 21.9 °F 17.1 °F 69% 30.07 in 10.0 mi South 3.5 mph - N/A   Clear
1:53 AM 26.1 °F - 16.0 °F 66% 30.05 in 10.0 mi Calm Calm - N/A   Clear
2:53 AM 24.1 °F 18.2 °F 16.0 °F 71% 30.01 in 10.0 mi South 4.6 mph - N/A   Clear
3:53 AM 23.0 °F - 15.1 °F 72% 29.99 in 10.0 mi Calm Calm - N/A   Clear
4:53 AM 23.0 °F - 14.0 °F 68% 30.00 in 10.0 mi Calm Calm - N/A   Clear
5:53 AM 21.9 °F - 12.9 °F 68% 30.04 in 10.0 mi Calm Calm - N/A   Clear
6:53 AM 21.0 °F 16.2 °F 12.0 °F 68% 30.05 in 10.0 mi SSW 3.5 mph - N/A   Clear
7:53 AM 24.1 °F - 14.0 °F 65% 30.06 in 10.0 mi Calm Calm - N/A   Clear
8:53 AM 32.0 °F 28.7 °F 16.0 °F 52% 30.03 in 10.0 mi South 3.5 mph - N/A   Clear
9:53 AM 42.1 °F 40.2 °F 18.0 °F 38% 30.01 in 10.0 mi South 3.5 mph - N/A   Clear
10:53 AM 45.0 °F - 10.9 °F 25% 30.00 in 10.0 mi Calm Calm - N/A   Clear
11:53 AM 48.0 °F - 7.0 °F 19% 29.98 in 10.0 mi SW 3.5 mph - N/A   Clear
12:53 PM 48.9 °F - 10.0 °F 21% 29.96 in 10.0 mi Variable 4.6 mph - N/A   Clear
1:53 PM 50.0 °F - 10.0 °F 20% 29.94 in 10.0 mi Calm Calm - N/A   Clear
2:53 PM 48.9 °F - 14.0 °F 25% 29.95 in 10.0 mi NNE 8.1 mph - N/A   Clear
3:53 PM 50.0 °F - 12.9 °F 23% 29.95 in 10.0 mi NNE 4.6 mph - N/A   Clear
4:53 PM 42.1 °F - 19.9 °F 41% 29.98 in 10.0 mi Calm Calm - N/A   Clear
5:53 PM 37.9 °F - 21.9 °F 53% 30.00 in 10.0 mi Calm Calm - N/A   Clear
6:53 PM 34.0 °F - 23.0 °F 64% 30.03 in 10.0 mi Calm Calm - N/A   Clear
7:53 PM 32.0 °F - 21.9 °F 66% 30.03 in 10.0 mi Calm Calm - N/A   Clear
9:53 PM 28.0 °F - 19.9 °F 72% 30.00 in 10.0 mi Calm Calm - N/A   Clear
10:53 PM 27.0 °F - 19.9 °F 75% 30.00 in 10.0 mi Calm Calm - N/A   Clear
11:53 PM 26.1 °F - 19.0 °F 75% 29.99 in 10.0 mi Calm Calm - N/A   Clear